Stations météo

réclame
Mon MeteoGroup
Barcelona/Aeropuerto, Espagne (8181): Température de l'air & dewpoint: 15.06.2018 01:00:00 - 21.06.2018 01:00:00 (CEST)Barcelona/Aeropuerto, Espagne (8181): Vitesse du vent: 15.06.2018 01:00:00 - 21.06.2018 01:00:00 (CEST)Barcelona/Aeropuerto, Espagne (8181): Direction du vent: 15.06.2018 01:00:00 - 21.06.2018 01:00:00 (CEST)Barcelona/Aeropuerto, Espagne (8181): reduced air pressure: 15.06.2018 01:00:00 - 21.06.2018 01:00:00 (CEST)Barcelona/Aeropuerto, Espagne (8181): visibility: 15.06.2018 01:00:00 - 21.06.2018 01:00:00 (CEST)
Date & Time tt [°C] td [°C] ff [km/h] ff [knt] dd ppp [hPa] vv [km]
21.06.2018 01:00:00 - - - - - - -
21.06.2018 00:00:00 22,6 18,6 8 4 WNW 1019,1 30
20.06.2018 23:00:00 23,9 18,9 5 3 WSW 1019,1 30
20.06.2018 22:00:00 24,3 19,5 5 3 SW 1018,6 30
20.06.2018 21:00:00 25,6 19,3 5 3 SSW 1018,4 29
20.06.2018 20:00:00 26,4 19,0 9 5 SSW 1018,3 30
20.06.2018 19:00:00 27,0 17,7 9 5 SSW 1018,0 30
20.06.2018 18:00:00 27,8 16,7 8 4 S 1018,5 30
20.06.2018 17:00:00 27,3 15,6 11 6 SSE 1018,7 35
20.06.2018 16:00:00 27,0 16,3 11 6 SSE 1019,0 30
20.06.2018 15:00:00 27,1 17,2 11 6 SSE 1019,2 30
20.06.2018 14:00:00 27,4 16,1 11 6 SSE 1019,5 40
20.06.2018 13:00:00 27,6 15,7 11 6 SSE 1019,9 30
20.06.2018 12:00:00 27,3 16,4 13 7 SE 1019,9 30
20.06.2018 11:00:00 27,0 15,1 13 7 ESE 1019,6 40
20.06.2018 10:00:00 27,5 15,7 8 4 ENE 1019,6 24
20.06.2018 09:00:00 24,9 15,7 15 8 N 1019,7 30
20.06.2018 08:00:00 22,7 15,5 11 6 N 1019,4 30
20.06.2018 07:00:00 21,1 15,0 15 8 N 1019,1 21
20.06.2018 06:00:00 21,0 14,6 13 7 N 1018,9 30
20.06.2018 05:00:00 21,3 14,7 13 7 N 1018,7 30
20.06.2018 04:00:00 21,2 14,8 11 6 NNW 1019,1 30
20.06.2018 03:00:00 21,2 15,1 8 4 NNW 1019,3 30
20.06.2018 02:00:00 21,6 16,3 5 3 W 1019,8 30
20.06.2018 01:00:00 21,3 16,5 9 5 W 1020,0 30
20.06.2018 00:00:00 21,9 17,7 9 5 W 1020,2 30
19.06.2018 23:00:00 23,2 17,0 13 7 SW 1020,1 30
19.06.2018 22:00:00 23,5 15,1 13 7 SW 1019,6 30
19.06.2018 21:00:00 24,3 16,9 18 10 SW 1019,3 30
19.06.2018 20:00:00 25,3 17,0 24 13 SW 1019,3 30
19.06.2018 19:00:00 25,6 17,1 26 14 SW 1019,4 30
19.06.2018 18:00:00 26,1 17,4 24 13 SW 1019,8 30
19.06.2018 17:00:00 26,4 18,1 24 13 SW 1020,1 25
19.06.2018 16:00:00 26,1 17,3 24 13 SW 1020,1 26
19.06.2018 15:00:00 25,6 16,7 22 12 SW 1020,6 26
19.06.2018 14:00:00 25,6 17,4 18 10 S 1020,8 35
19.06.2018 13:00:00 25,2 17,0 16 9 S 1021,1 18
19.06.2018 12:00:00 25,9 14,9 13 7 SSW 1021,3 18
19.06.2018 11:00:00 27,1 13,4 5 3 N 1021,4 35
19.06.2018 10:00:00 25,3 13,4 21 11 N 1021,6 30
19.06.2018 09:00:00 23,7 13,3 21 11 N 1021,7 30
19.06.2018 08:00:00 22,1 13,7 15 8 N 1021,3 30
19.06.2018 07:00:00 20,1 13,1 16 9 N 1021,1 22
19.06.2018 06:00:00 19,7 12,9 16 9 N 1020,8 29
19.06.2018 05:00:00 20,2 12,4 13 7 N 1020,5 30
19.06.2018 04:00:00 19,8 13,0 5 3 N 1020,5 27
19.06.2018 03:00:00 20,2 13,2 4 2 NNW 1020,7 30
19.06.2018 02:00:00 21,5 13,7 9 5 N 1020,7 30
19.06.2018 01:00:00 21,9 14,5 9 5 N 1020,8 30
19.06.2018 00:00:00 22,5 15,8 5 3 SW 1020,6 30
18.06.2018 23:00:00 22,0 15,6 5 3 W 1020,5 30
18.06.2018 22:00:00 22,7 16,1 11 6 WSW 1020,0 30
18.06.2018 21:00:00 24,0 17,3 11 6 SW 1019,7 30
18.06.2018 20:00:00 24,4 18,0 16 9 SW 1019,5 18
18.06.2018 19:00:00 25,1 17,5 15 8 SW 1019,5 30
18.06.2018 18:00:00 25,3 18,8 22 12 SW 1019,5 30
18.06.2018 17:00:00 26,0 17,6 16 9 SW 1019,5 40
18.06.2018 16:00:00 25,9 14,4 18 10 SW 1019,8 30
18.06.2018 15:00:00 25,8 15,3 22 12 SW 1020,0 30
18.06.2018 14:00:00 25,7 16,8 18 10 SW 1020,2 40
18.06.2018 13:00:00 25,4 17,0 22 12 SW 1020,3 30
18.06.2018 12:00:00 25,2 14,5 18 10 SW 1020,5 30
18.06.2018 11:00:00 24,7 14,9 15 8 SW 1020,6 35
18.06.2018 10:00:00 24,8 16,2 11 6 W 1020,8 30
18.06.2018 09:00:00 23,1 16,6 11 6 N 1020,9 14
18.06.2018 08:00:00 21,1 16,1 15 8 N 1021,0 16
18.06.2018 07:00:00 19,4 15,3 13 7 N 1020,7 14
18.06.2018 06:00:00 19,1 15,0 13 7 N 1020,7 15
18.06.2018 05:00:00 19,3 15,2 11 6 N 1020,4 23
18.06.2018 04:00:00 19,1 14,8 4 2 N 1020,4 29
18.06.2018 03:00:00 19,3 14,3 5 3 NW 1020,6 30
18.06.2018 02:00:00 20,1 14,2 11 6 N 1020,8 28
18.06.2018 01:00:00 21,8 16,3 8 4 ENE 1021,2 30
18.06.2018 00:00:00 22,2 15,3 9 5 E 1021,0 30
17.06.2018 23:00:00 22,2 15,1 4 2 S 1020,8 30
17.06.2018 22:00:00 22,5 15,6 8 4 SW 1019,9 30
17.06.2018 21:00:00 23,3 14,8 11 6 SW 1019,3 30
17.06.2018 20:00:00 24,0 15,6 15 8 SW 1019,2 30
17.06.2018 19:00:00 24,6 14,4 9 5 SSW 1019,1 30
17.06.2018 18:00:00 25,2 12,7 11 6 SSW 1019,0 28
17.06.2018 17:00:00 24,6 16,8 11 6 S 1019,0 30
17.06.2018 16:00:00 24,5 18,4 13 7 SW 1019,5 30
17.06.2018 15:00:00 25,0 18,4 15 8 SSE 1019,6 30
17.06.2018 14:00:00 25,2 18,3 15 8 S 1019,8 30
17.06.2018 13:00:00 24,7 19,0 13 7 S 1019,7 30
17.06.2018 12:00:00 24,5 18,0 13 7 S 1019,4 18
17.06.2018 11:00:00 24,7 18,2 11 6 SSE 1019,2 12
17.06.2018 10:00:00 25,0 15,8 8 4 NNE 1019,1 30
17.06.2018 09:00:00 23,1 16,2 9 5 NNE 1018,9 30
17.06.2018 08:00:00 21,5 16,2 8 4 NNW 1018,4 25
17.06.2018 07:00:00 20,1 15,9 9 5 N 1017,8 17
17.06.2018 06:00:00 20,1 16,1 2 1 N 1017,6 19
17.06.2018 05:00:00 20,2 15,6 8 4 N 1017,6 25
17.06.2018 04:00:00 20,6 16,4 0 0 N 1017,5 23
17.06.2018 03:00:00 20,5 16,3 8 4 W 1017,7 30
17.06.2018 02:00:00 20,9 17,9 5 3 W 1017,8 20
17.06.2018 01:00:00 21,6 18,8 8 4 WSW 1017,7 18
17.06.2018 00:00:00 22,0 19,2 11 6 SW 1017,5 25
16.06.2018 23:00:00 22,3 19,1 13 7 SW 1017,2 25
16.06.2018 22:00:00 22,5 18,5 18 10 SW 1016,4 30
16.06.2018 21:00:00 22,8 18,8 18 10 SW 1015,8 30
16.06.2018 20:00:00 24,0 17,3 21 11 SW 1015,4 30
16.06.2018 19:00:00 23,7 17,4 24 13 WSW 1015,3 30
16.06.2018 18:00:00 24,4 17,3 26 14 SW 1015,2 23
16.06.2018 17:00:00 24,3 17,1 26 14 SSW 1015,3 30
16.06.2018 16:00:00 24,6 16,5 24 13 SW 1015,6 30
16.06.2018 15:00:00 24,3 16,2 22 12 SW 1015,8 29
16.06.2018 14:00:00 23,8 17,8 16 9 SW 1016,1 20
16.06.2018 13:00:00 23,6 17,3 18 10 SSW 1016,2 30
16.06.2018 12:00:00 23,6 17,5 18 10 SW 1016,4 30
16.06.2018 11:00:00 23,1 16,9 15 8 SW 1016,1 30
16.06.2018 10:00:00 24,3 16,0 5 3 SSW 1016,0 30
16.06.2018 09:00:00 21,8 14,7 9 5 N 1016,0 19
16.06.2018 08:00:00 20,3 13,9 15 8 N 1015,7 20
16.06.2018 07:00:00 19,1 13,5 11 6 N 1015,6 30
16.06.2018 06:00:00 18,9 14,0 8 4 N 1015,5 29
16.06.2018 05:00:00 19,4 14,4 8 4 N 1015,6 27
16.06.2018 04:00:00 20,1 15,9 5 3 NW 1015,7 30
16.06.2018 03:00:00 20,8 15,6 4 2 W 1015,9 30
16.06.2018 02:00:00 20,9 14,0 4 2 WSW 1016,1 25
16.06.2018 01:00:00 21,4 14,8 2 1 W 1016,1 30
16.06.2018 00:00:00 21,4 14,5 4 2 WSW 1015,9 30
15.06.2018 23:00:00 21,9 14,0 4 2 SSW 1015,9 30
15.06.2018 22:00:00 22,2 13,8 8 4 SSW 1015,4 30
15.06.2018 21:00:00 22,8 14,1 11 6 S 1015,0 30
15.06.2018 20:00:00 23,1 13,4 16 9 SW 1014,6 3,0
15.06.2018 19:00:00 24,0 14,0 21 11 SW 1014,1 30
15.06.2018 18:00:00 24,1 14,5 21 11 SW 1014,0 30
15.06.2018 17:00:00 24,7 15,7 22 12 SW 1014,4 30
15.06.2018 16:00:00 24,1 15,6 18 10 SW 1014,6 30
15.06.2018 15:00:00 24,5 14,4 13 7 S 1014,8 30
15.06.2018 14:00:00 23,9 14,9 13 7 S 1015,0 25
15.06.2018 13:00:00 23,8 16,0 11 6 S 1015,2 23
15.06.2018 12:00:00 24,7 15,9 13 7 SE 1015,3 19
15.06.2018 11:00:00 23,7 11,5 15 8 N 1015,4 30
15.06.2018 10:00:00 22,3 11,3 15 8 N 1015,2 25
15.06.2018 09:00:00 21,9 12,4 16 9 N 1015,0 25
15.06.2018 08:00:00 20,1 13,3 16 9 N 1014,3 25
15.06.2018 07:00:00 18,4 13,1 11 6 NNW 1014,2 30
15.06.2018 06:00:00 17,6 13,3 11 6 N 1014,1 19
15.06.2018 05:00:00 18,5 13,5 9 5 N 1014,0 22
15.06.2018 04:00:00 18,4 13,0 5 3 NNW 1014,4 30
15.06.2018 03:00:00 19,0 14,0 4 2 W 1014,4 30
15.06.2018 02:00:00 19,8 14,4 0 0 N 1014,8 30
15.06.2018 01:00:00 21,2 16,7 8 4 SW 1014,9 29

tt = Température de l'air
td = dewpoint
ff = Vitesse du vent
dd = Direction du vent
ppp = reduced air pressure
vv = visibility

stations d'obs. à proximité